map of PEE home
Great Circle Mapper logo
PEE - Airport
Location
City:  Perm, Russian Federation (Russia)
Name:Bolshoye Savino
ICAO / IATA:USPP / PEE

Details
Type:Airport (Aerodrome, Airfield)
Use:Public/Civil, Military
Latitude:5754'52"N (57.914517)
Longitude:5601'16"E (56.021214)
Datum:WGS 1984
Elevation:404 ft (123 m)
Variation:15.31E (WMM2015 magnetic declination)
0.10 annual change
Runways:1
Longest:10520 × 161 ft (3206 × 49 m), paved

Time
Time Zone:UTC+5 (DST+6)

Weather
METAR:USPP 280130Z 21002MPS 9999 OVC021 M07/M09 Q1033 21090060 TEMPO 1100 FZDZ OVC003 RMK QFE763/1018
TAF:USPP 272259Z 2800/2824 19005MPS 6000 SCT007 OVC100
TEMPO 2800/2804 2000 -SN BR

Related Locations
Nearby:
Farthest:SCPZ: 10647 mi / 17134 km
Antartica (Antarctica) [Patriot Hills], MA, CL

Find:

   beyond  
but within

Other Information
Maps:
NOTAMs:
Links:
Sources:

  
flag of Russian Federation (Russia)   

Sectional Chart

Flight Planning
at skyvector.com

Satellite Image

Google Maps Satellite View

 

Copyright © 2004-2015 Karl L. Swartz. All rights reserved.
The Great Circle Mapper name and logo are trademarks of the Great Circle Mapper.
All other trademarks mentioned herein belong to their respective owners.
Please see credits for attibutions and further copyright information.

  Follow gcmap on Facebook Follow gcmap on Twitter Follow gcmap on Google+

hCard Microformat

Geo Microformat